Regional Weather Roundup
Issued by NWS

Home | Current Version | Previous Version | Graphics & Text | Print | Product List | Glossary On
Versions: 1 2 3 4 5 6 7 8 9 10 11 12 13 14 15 16 17 18 19 20 21 22 23 24 25 26 27 28 29 30 31 32 33 34 35 36 37 38 39 40 41 42 43 44 45 46 47 48 49 50
000
ASUS43 KMPX 161910
RWRMN
WEATHER ROUNDUP FOR MINNESOTA
NATIONAL WEATHER SERVICE TWIN CITIES/CHANHASSEN MN
200 PM CDT MON OCT 16 2017


NOTE: "FAIR" INDICATES FEW OR NO CLOUDS BELOW 12,000 FEET WITH NO
SIGNIFICANT WEATHER AND/OR OBSTRUCTIONS TO VISIBILITY. N/A MEANS
CURRENT SKY AND/OR WEATHER CONDITIONS ARE NOT AVAILABLE.

MNZ060>063-068>070-162000-
   Twin Cities Metro

CITY           SKY/WX    TMP DP  RH WIND       PRES   REMARKS
TWIN CITIES    MOSUNNY   62  35  36 SW10G20   30.13F
ST PAUL        SUNNY     61  36  39 S9        30.14F
CRYSTAL        SUNNY     61  34  36 SW9       30.11F
BLAINE         SUNNY     63  37  39 S10       30.12F
LAKEVILLE      SUNNY     63  36  36 SW6       30.13F
EDEN PRAIRIE   SUNNY     63  35  35 SW16G24   30.11F
SOUTH ST PAUL  SUNNY     62  34  35 SW10      30.13F
LAKE ELMO      FAIR      61  37  41 S12       30.15F
$$
MNZ001>005-007-008-013>017-022>024-027-028-162000-
   Northwest Minnesota

CITY           SKY/WX    TMP DP  RH WIND       PRES   REMARKS
BEMIDJI        SUNNY     62  35  36 S13G24    29.93F
HALLOCK        SUNNY     64  34  32 SW16G23   29.80F
ROSEAU           N/A     63  37  39 SW24G32   29.80F
WARROAD        SUNNY     63  37  39 SW22      29.81F
THIEF RVR FALL CLOUDY    62  35  36 SW22G30   29.86
CROOKSTON      SUNNY     68  36  30 W20G26    29.86F
FOSSTON        SUNNY     64  32  29 S26G35    29.90F
DETROIT LAKES  SUNNY     61  36  39 SW16G29   29.96F
MOORHEAD       SUNNY     66  36  32 SW18G28   29.93F
PARK RAPIDS    SUNNY     63  37  38 SW14G24   29.98F
MAHNOMEN       FAIR      62  37  40 SW24G31   29.91F
$$
MNZ006-009>011-018-025>026-162000-
   North Central Minnesota

CITY           SKY/WX    TMP DP  RH WIND       PRES   REMARKS
BAUDETTE       SUNNY     62  34  35 S22G29    29.83F
FLAG ISLAND    CLOUDY    57  41  54 S16       29.77F
INTL FALLS     SUNNY     61  33  35 SW14G24   29.90F
WASKISH        PTSUNNY   63  36  36 S15G25    29.89F
BIG FORK       MOSUNNY   61  36  39 SW17G26   29.96F
LONGVILLE      SUNNY     63  32  31 S15G23    30.00F
GRAND RAPIDS   SUNNY     59  33  37 W10G20    30.02F
CRANE LAKE     SUNNY     55  34  44 S6G18     29.98F
ORR            SUNNY     59  30  33 S9G18     29.94F
COOK           MOSUNNY   57  34  41 SW10G18   29.99F
WALKER         FAIR      61  34  36 SW17G24   29.96F
$$
MNZ012-019>021-037-162000-
   Northeast Minnesota

CITY           SKY/WX    TMP DP  RH WIND       PRES   REMARKS
DULUTH         MOSUNNY   57  37  47 SW14G24   30.04F
ELY            MOSUNNY   54  32  43 SW13      29.99F
HIBBING        CLOUDY    57  33  40 SW8G17    30.00F
EVELETH        MOSUNNY   57  25  28 SW15G23   30.02F
DULUTH HARBOR  SUNNY     59  39  47 SW14      30.05F
TWO HARBORS      N/A     61  41  48 W9G17     30.03F
SILVER BAY     MOSUNNY   57  39  51 S9        30.02F
GRAND MARAIS     N/A     52  46  80 SW16      30.04F
G MARAIS ARPRT MOSUNNY   48  37  66 S7        30.02F
$$
MNZ029>031-032-039>041-046>048-054>057-064-162000-
   West Central Minnesota

CITY           SKY/WX    TMP DP  RH WIND       PRES   REMARKS
FERGUS FALLS   SUNNY     64  39  39 SW21      29.98F
WHEATON        SUNNY     70  32  24 S14       30.00F
MORRIS         SUNNY     66  39  37 SW17      30.01F
ALEXANDRIA     SUNNY     63  37  38 S17       30.05F
ELBOW LAKE     FAIR      64  38  38 SW14      30.01F
WADENA         SUNNY     63  37  39 SW15      29.99F
GLENWOOD       SUNNY     63  37  39 S15G21    30.05F
APPLETON       SUNNY     70  32  24 SW14G20   30.02F
BENSON         SUNNY     66  34  30 SW16G22   30.05F
ORTONVILLE     SUNNY     70  34  26 NW10G17   30.01F
MADISON        SUNNY     72  34  25 SW13G18   30.02F
WILLMAR        FAIR      68  37  32 SW13G21   30.06F
$$
MNZ033>034-036-042>043-049>051-058-059-162000-
   Central Minnesota

CITY           SKY/WX    TMP DP  RH WIND       PRES   REMARKS
ST CLOUD       SUNNY     61  37  41 S15       30.08F
SAUK CENTRE    FAIR      62  39  42 SW16G22   30.06F
PAYNESVILLE    SUNNY     63  38  39 SW16      30.07F
AITKIN         SUNNY     59  32  36 S14G20    30.02F
PINE RIVER     SUNNY     59  34  38 SW10G22   30.04F
BRAINERD       SUNNY     60  33  36 S14G25    30.04F
STAPLES        SUNNY     61  32  33 S14G21    30.01F
LONG PRAIRIE   FAIR      61  37  41 S12G20    30.05F
LITTLE FALLS   SUNNY     61  25  25 S15       30.06F
LITCHFIELD     SUNNY     64  37  36 SW8       30.08F
BUFFALO        SUNNY     62  33  33 S12       30.11F
MAPLE LAKE     SUNNY     64  37  36 SW9G16    30.10F
HUTCHINSON     SUNNY     66  38  36 S12G17    30.11F
$$
MNZ037-044-045-052-053-162000-
   East Central Minnesota

CITY           SKY/WX    TMP DP  RH WIND       PRES   REMARKS
PRINCETON      SUNNY     63  36  36 S8G16     30.10F
MORA           SUNNY     57  34  41 S15       30.10F
CAMBRIDGE      SUNNY     63  41  45 S10       30.11F
RUSH CITY      SUNNY     60  35  39 SW12      30.11F
MOOSE LAKE     SUNNY     59  34  38 SW9G17    30.05F
HINCKLEY       FAIR      59  37  44 S13       30.09F
CLOQUET        SUNNY     57  30  35 SW13      30.05F
MCGREGOR       SUNNY     59  36  41 SW16      30.05F
$$
MNZ071>073-080-081-089-090-097-098-162000-
   Southwest Minnesota

CITY           SKY/WX    TMP DP  RH WIND       PRES   REMARKS
MONTEVIDEO     SUNNY     70  37  30 W12G21    30.05F
GRANITE FALLS  SUNNY     68  38  33 S20       30.07F
CANBY          SUNNY     69  33  26 SW16G25   30.03F
MARSHALL       SUNNY     67  36  31 SW22      30.05F
REDWOOD FALLS  SUNNY     67  33  28 SW20G25   30.08F
OLIVIA         SUNNY     68  36  30 SW17G25   30.06F
PIPESTONE      SUNNY     66  36  32 SW13G20   30.08F
WORTHINGTON    SUNNY     67  33  28 S16G23    30.12F
JACKSON          N/A     64  34  32 S13G20    30.15F
TRACY          SUNNY     66  37  33 SW20      30.08F
SLAYTON        SUNNY     66  34  31 S20G25    30.11F
$$
MNZ065>067-074>077-082>085-091>093-162000-
   South Central Minnesota

CITY           SKY/WX    TMP DP  RH WIND       PRES   REMARKS
MANKATO        SUNNY     66  35  31 SW14      30.14F
NEW ULM          N/A     64  36  34 SW16G23   30.11F
ST JAMES       SUNNY     64  34  32 SW14G21   30.14F
FAIRMONT       SUNNY     65  35  33 SW16      30.16F
GLENCOE        SUNNY     65  35  32 S16G23    30.10F
FARIBAULT      SUNNY     63  36  36 S10G20    30.15F
OWATONNA       SUNNY     64  36  34 SW10G21   30.16F
WASECA         SUNNY     63  32  31 SW15G23   30.17F
ALBERT LEA     SUNNY     66  34  30 SW8       30.18F
$$
MNZ078>079-086>088-094>096-162000-
   Southeast Minnesota

CITY           SKY/WX    TMP DP  RH WIND       PRES   REMARKS
ROCHESTER      SUNNY     62  38  40 W13       30.19F
RED WING       SUNNY     63  30  29 SW8       30.14F
STANTON        SUNNY     63  34  33 SW10      30.14F
DODGE CENTER   SUNNY     63  30  29 SW15G21   30.18F
WINONA         SUNNY     61  32  33 W8G16     30.19F
AUSTIN         SUNNY     63  32  31 SW14G21   30.19F
PRESTON        SUNNY     61  33  34 W10G18    30.20F
$$
ABBREVIATIONS USED IN REMARKS
   TC - TEMPERATURES IN CELSIUS
  WCI - WIND CHILL INDEX
   HX - HEAT INDEX
  VSB - VISIBILITY
$$




USA.gov is the U.S. government's official web portal to all federal, state and local government web resources and services.